Location: Newark
(43.6583°N, 1.6617°E)
Time: 16:48:26
(UTC+00:00)

Transit 4A - Pass Details

Date: 02 September 2019
Orbit: 865 x 980 km, 66.8° (Epoch: 15 September)

Event Time Altitude Azimuth Distance (km) Brightness Sun altitude
Rises 14:14:44 0° 173° (S) 3,658 11.3 42.7°
Reaches altitude 10° 14:17:40 10° 161° (SSE) 2,721 10.7 42.3°
Maximum altitude 14:22:50 27° 107° (ESE) 1,802 9.4 41.6°
Drops below altitude 10° 14:28:00 10° 53° (NE) 2,727 10.0 40.8°
Sets 14:30:56 0° 42° (NE) 3,668 10.6 40.4°
